Time,TemperatureF,DewpointF,PressureIn,WindDirection,WindDirectionDegrees,WindSpeedMPH,WindSpeedGustMPH,Humidity,HourlyPrecipIn,Conditions,Clouds,dailyrainin,SoftwareType,DateUTC
2013-05-29 00:04:00,66.1,65.0,30.24,WNW,287,0.0,0.0,95,0.00,,,0.00,weatherlink.com 1.10,2013-05-29 04:04:00,
2013-05-29 00:19:00,66.0,65.0,30.24,WNW,287,0.0,0.0,96,0.00,,,0.00,weatherlink.com 1.10,2013-05-29 04:19:00,
2013-05-29 00:34:00,66.0,65.0,30.24,WNW,287,0.0,0.0,96,0.00,,,0.00,weatherlink.com 1.10,2013-05-29 04:34:00,
2013-05-29 00:49:00,65.8,65.0,30.24,WNW,287,0.0,0.0,96,0.00,,,0.00,weatherlink.com 1.10,2013-05-29 04:49:00,
2013-05-29 01:04:00,65.5,64.0,30.23,WNW,287,0.0,0.0,96,0.00,,,0.00,weatherlink.com 1.10,2013-05-29 05:04:00,
2013-05-29 01:19:00,65.3,64.0,30.23,WNW,287,0.0,0.0,96,0.00,,,0.00,weatherlink.com 1.10,2013-05-29 05:19:00,
2013-05-29 01:34:00,65.2,64.0,30.23,WNW,287,0.0,0.0,96,0.00,,,0.00,weatherlink.com 1.10,2013-05-29 05:34:00,
2013-05-29 01:49:00,65.0,64.0,30.23,WNW,287,0.0,0.0,97,0.00,,,0.00,weatherlink.com 1.10,2013-05-29 05:49:00,
2013-05-29 02:04:00,64.7,64.0,30.23,WNW,287,0.0,0.0,97,0.00,,,0.00,weatherlink.com 1.10,2013-05-29 06:04:00,
2013-05-29 02:19:00,64.4,64.0,30.22,WNW,287,0.0,0.0,97,0.00,,,0.00,weatherlink.com 1.10,2013-05-29 06:19:00,
2013-05-29 02:34:00,64.2,63.0,30.21,WNW,287,0.0,0.0,97,0.00,,,0.00,weatherlink.com 1.10,2013-05-29 06:34:00,
2013-05-29 02:50:00,63.9,63.0,30.21,WNW,287,0.0,0.0,97,0.00,,,0.00,weatherlink.com 1.10,2013-05-29 06:50:00,
2013-05-29 03:05:00,63.6,63.0,30.20,WNW,287,0.0,0.0,97,0.00,,,0.00,weatherlink.com 1.10,2013-05-29 07:05:00,
2013-05-29 03:20:00,65.1,65.0,30.20,WNW,287,0.0,0.0,99,0.00,,,0.00,weatherlink.com 1.10,2013-05-29 07:20:00,
2013-05-29 03:35:00,66.6,66.0,30.19,West,270,0.0,1.0,99,0.00,,,0.00,weatherlink.com 1.10,2013-05-29 07:35:00,
2013-05-29 03:50:00,67.5,67.0,30.19,SSE,150,0.0,2.0,99,0.00,,,0.00,weatherlink.com 1.10,2013-05-29 07:50:00,
2013-05-29 04:05:00,68.1,68.0,30.18,SSW,210,0.0,1.0,98,0.00,,,0.00,weatherlink.com 1.10,2013-05-29 08:05:00,
2013-05-29 04:20:00,68.3,68.0,30.18,West,274,0.0,2.0,98,0.00,,,0.00,weatherlink.com 1.10,2013-05-29 08:20:00,
2013-05-29 04:35:00,68.7,68.0,30.18,SSW,210,1.0,3.0,98,0.00,,,0.00,weatherlink.com 1.10,2013-05-29 08:35:00,
2013-05-29 04:50:00,68.7,68.0,30.18,SW,232,0.0,3.0,98,0.00,,,0.00,weatherlink.com 1.10,2013-05-29 08:50:00,
2013-05-29 05:05:00,68.3,68.0,30.19,SSW,197,0.0,1.0,97,0.00,,,0.00,weatherlink.com 1.10,2013-05-29 09:05:00,
2013-05-29 05:20:00,66.2,65.0,30.20,SSW,198,0.0,1.0,96,0.00,,,0.00,weatherlink.com 1.10,2013-05-29 09:20:00,
2013-05-29 05:35:00,65.2,64.0,30.21,SSW,197,0.0,0.0,97,0.00,,,0.00,weatherlink.com 1.10,2013-05-29 09:35:00,
2013-05-29 05:50:00,64.6,64.0,30.22,SSW,197,0.0,0.0,97,0.00,,,0.00,weatherlink.com 1.10,2013-05-29 09:50:00,
2013-05-29 06:05:00,64.3,64.0,30.22,SSW,198,0.0,0.0,98,0.00,,,0.00,weatherlink.com 1.10,2013-05-29 10:05:00,
2013-05-29 06:20:00,64.1,64.0,30.23,SSW,197,0.0,0.0,98,0.00,,,0.00,weatherlink.com 1.10,2013-05-29 10:20:00,
2013-05-29 06:35:00,63.9,63.0,30.24,SSW,197,0.0,1.0,98,0.00,,,0.00,weatherlink.com 1.10,2013-05-29 10:35:00,
2013-05-29 06:50:00,64.0,64.0,30.24,SSW,197,0.0,0.0,98,0.00,,,0.00,weatherlink.com 1.10,2013-05-29 10:50:00,
2013-05-29 07:05:00,64.7,64.0,30.25,SSW,197,0.0,0.0,98,0.00,,,0.00,weatherlink.com 1.10,2013-05-29 11:05:00,
2013-05-29 07:20:00,67.3,67.0,30.25,SSW,197,0.0,0.0,99,0.00,,,0.00,weatherlink.com 1.10,2013-05-29 11:20:00,
2013-05-29 07:35:00,67.6,67.0,30.25,SSW,197,0.0,0.0,97,0.00,,,0.00,weatherlink.com 1.10,2013-05-29 11:35:00,
2013-05-29 07:50:00,69.2,68.0,30.26,SSW,197,0.0,0.0,97,0.00,,,0.00,weatherlink.com 1.10,2013-05-29 11:50:00,
2013-05-29 08:05:00,72.2,72.0,30.26,SSW,197,0.0,1.0,98,0.00,,,0.00,weatherlink.com 1.10,2013-05-29 12:05:00,
2013-05-29 08:20:00,74.8,72.0,30.26,SE,124,0.0,0.0,92,0.00,,,0.00,weatherlink.com 1.10,2013-05-29 12:20:00,
2013-05-29 08:35:00,75.9,70.0,30.26,ENE,75,3.0,4.0,82,0.00,,,0.00,weatherlink.com 1.10,2013-05-29 12:35:00,
2013-05-29 08:50:00,76.8,70.0,30.26,East,84,5.0,6.0,79,0.00,,,0.00,weatherlink.com 1.10,2013-05-29 12:50:00,
2013-05-29 09:05:00,76.8,69.0,30.26,East,98,1.0,6.0,77,0.00,,,0.00,weatherlink.com 1.10,2013-05-29 13:05:00,
2013-05-29 09:20:00,77.4,70.0,30.27,ESE,102,2.0,7.0,77,0.00,,,0.00,weatherlink.com 1.10,2013-05-29 13:20:00,
2013-05-29 09:36:00,77.9,69.0,30.27,SE,127,2.0,5.0,75,0.00,,,0.00,weatherlink.com 1.10,2013-05-29 13:36:00,
2013-05-29 09:50:00,78.6,69.0,30.27,SW,217,1.0,5.0,73,0.00,,,0.00,weatherlink.com 1.10,2013-05-29 13:50:00,
2013-05-29 10:05:00,78.7,70.0,30.27,ESE,104,4.0,6.0,75,0.00,,,0.00,weatherlink.com 1.10,2013-05-29 14:05:00,
2013-05-29 10:20:00,78.2,69.0,30.27,ENE,78,2.0,8.0,74,0.00,,,0.00,weatherlink.com 1.10,2013-05-29 14:20:00,
2013-05-29 10:35:00,78.6,69.0,30.28,SW,226,0.0,7.0,73,0.00,,,0.00,weatherlink.com 1.10,2013-05-29 14:35:00,
2013-05-29 10:51:00,79.6,70.0,30.28,SW,225,2.0,10.0,72,0.00,,,0.00,weatherlink.com 1.10,2013-05-29 14:51:00,
2013-05-29 11:06:00,80.3,70.0,30.29,West,281,3.0,9.0,71,0.00,,,0.00,weatherlink.com 1.10,2013-05-29 15:06:00,
2013-05-29 11:21:00,79.8,69.0,30.29,West,264,5.0,9.0,70,0.00,,,0.00,weatherlink.com 1.10,2013-05-29 15:21:00,
2013-05-29 11:36:00,80.0,69.0,30.29,SE,124,2.0,9.0,69,0.00,,,0.00,weatherlink.com 1.10,2013-05-29 15:36:00,
2013-05-29 11:51:00,78.8,68.0,30.29,SE,130,2.0,10.0,70,0.00,,,0.00,weatherlink.com 1.10,2013-05-29 15:51:00,
2013-05-29 12:06:00,80.1,69.0,30.29,SW,226,4.0,7.0,69,0.00,,,0.00,weatherlink.com 1.10,2013-05-29 16:06:00,
2013-05-29 12:21:00,80.6,67.0,30.29,NW,323,2.0,8.0,63,0.00,,,0.00,weatherlink.com 1.10,2013-05-29 16:21:00,
2013-05-29 12:36:00,80.3,68.0,30.28,ESE,109,2.0,7.0,66,0.00,,,0.00,weatherlink.com 1.10,2013-05-29 16:36:00,
2013-05-29 12:51:00,80.4,68.0,30.29,SW,219,3.0,6.0,65,0.00,,,0.00,weatherlink.com 1.10,2013-05-29 16:51:00,
2013-05-29 13:06:00,81.5,68.0,30.28,SSE,162,2.0,5.0,63,0.00,,,0.00,weatherlink.com 1.10,2013-05-29 17:06:00,
2013-05-29 13:21:00,81.3,68.0,30.28,SW,225,1.0,8.0,64,0.00,,,0.00,weatherlink.com 1.10,2013-05-29 17:21:00,
2013-05-29 13:36:00,82.6,70.0,30.27,WSW,256,0.0,5.0,65,0.00,,,0.00,weatherlink.com 1.10,2013-05-29 17:36:00,
2013-05-29 13:51:00,81.7,68.0,30.26,East,83,4.0,5.0,64,0.00,,,0.00,weatherlink.com 1.10,2013-05-29 17:51:00,
2013-05-29 14:06:00,81.4,68.0,30.26,East,86,3.0,7.0,64,0.00,,,0.00,weatherlink.com 1.10,2013-05-29 18:06:00,
2013-05-29 14:21:00,81.5,68.0,30.25,WSW,249,6.0,8.0,63,0.00,,,0.00,weatherlink.com 1.10,2013-05-29 18:21:00,
2013-05-29 14:36:00,81.5,68.0,30.25,South,177,4.0,6.0,64,0.00,,,0.00,weatherlink.com 1.10,2013-05-29 18:36:00,
2013-05-29 14:51:00,81.7,68.0,30.25,South,181,0.0,10.0,64,0.00,,,0.00,weatherlink.com 1.10,2013-05-29 18:51:00,
2013-05-29 15:06:00,81.3,69.0,30.25,SE,143,3.0,5.0,66,0.00,,,0.00,weatherlink.com 1.10,2013-05-29 19:06:00,
2013-05-29 15:21:00,81.9,69.0,30.25,East,101,2.0,6.0,64,0.00,,,0.00,weatherlink.com 1.10,2013-05-29 19:21:00,
2013-05-29 15:36:00,81.2,68.0,30.24,SSE,165,3.0,5.0,64,0.00,,,0.00,weatherlink.com 1.10,2013-05-29 19:36:00,
2013-05-29 15:51:00,80.6,68.0,30.24,ENE,61,5.0,6.0,66,0.00,,,0.00,weatherlink.com 1.10,2013-05-29 19:51:00,
2013-05-29 16:06:00,81.0,68.0,30.23,East,88,2.0,5.0,64,0.00,,,0.00,weatherlink.com 1.10,2013-05-29 20:06:00,
2013-05-29 16:21:00,80.8,68.0,30.23,ESE,103,2.0,3.0,66,0.00,,,0.00,weatherlink.com 1.10,2013-05-29 20:21:00,
2013-05-29 16:36:00,80.4,68.0,30.24,SW,222,2.0,4.0,65,0.00,,,0.00,weatherlink.com 1.10,2013-05-29 20:36:00,
2013-05-29 16:51:00,79.9,68.0,30.24,East,94,2.0,4.0,67,0.00,,,0.00,weatherlink.com 1.10,2013-05-29 20:51:00,
2013-05-29 17:06:00,79.3,67.0,30.24,East,97,3.0,4.0,67,0.00,,,0.00,weatherlink.com 1.10,2013-05-29 21:06:00,
2013-05-29 17:21:00,78.5,68.0,30.24,East,80,3.0,4.0,69,0.00,,,0.00,weatherlink.com 1.10,2013-05-29 21:21:00,
2013-05-29 17:36:00,77.7,67.0,30.24,ENE,60,1.0,7.0,70,0.00,,,0.00,weatherlink.com 1.10,2013-05-29 21:36:00,
2013-05-29 17:51:00,77.8,67.0,30.23,East,84,4.0,4.0,70,0.00,,,0.00,weatherlink.com 1.10,2013-05-29 21:51:00,
2013-05-29 18:06:00,78.0,67.0,30.23,SE,129,0.0,7.0,70,0.00,,,0.00,weatherlink.com 1.10,2013-05-29 22:06:00,
2013-05-29 18:21:00,77.6,68.0,30.23,East,89,1.0,5.0,72,0.00,,,0.00,weatherlink.com 1.10,2013-05-29 22:21:00,
2013-05-29 18:36:00,76.8,67.0,30.23,East,88,0.0,4.0,72,0.00,,,0.00,weatherlink.com 1.10,2013-05-29 22:36:00,
2013-05-29 18:51:00,76.2,67.0,30.23,West,260,0.0,5.0,73,0.00,,,0.00,weatherlink.com 1.10,2013-05-29 22:51:00,
2013-05-29 19:06:00,75.8,67.0,30.23,SW,214,0.0,3.0,74,0.00,,,0.00,weatherlink.com 1.10,2013-05-29 23:06:00,
2013-05-29 19:21:00,75.4,67.0,30.23,ENE,60,0.0,3.0,76,0.00,,,0.00,weatherlink.com 1.10,2013-05-29 23:21:00,
2013-05-29 19:36:00,75.1,67.0,30.23,East,96,0.0,3.0,77,0.00,,,0.00,weatherlink.com 1.10,2013-05-29 23:36:00,
2013-05-29 19:51:00,74.9,68.0,30.23,ENE,73,1.0,4.0,78,0.00,,,0.00,weatherlink.com 1.10,2013-05-29 23:51:00,
2013-05-29 20:06:00,74.5,67.0,30.23,WSW,248,0.0,2.0,78,0.00,,,0.00,weatherlink.com 1.10,2013-05-30 00:06:00,
2013-05-29 20:21:00,74.2,68.0,30.23,ENE,75,0.0,1.0,80,0.00,,,0.00,weatherlink.com 1.10,2013-05-30 00:21:00,
2013-05-29 20:36:00,73.6,67.0,30.22,NE,51,0.0,2.0,81,0.00,,,0.00,weatherlink.com 1.10,2013-05-30 00:36:00,
2013-05-29 20:51:00,72.0,67.0,30.22,NE,51,0.0,1.0,83,0.00,,,0.00,weatherlink.com 1.10,2013-05-30 00:51:00,
2013-05-29 21:06:00,71.3,67.0,30.22,ESE,102,0.0,1.0,85,0.00,,,0.00,weatherlink.com 1.10,2013-05-30 01:06:00,
2013-05-29 21:21:00,70.8,67.0,30.22,East,98,0.0,1.0,87,0.00,,,0.00,weatherlink.com 1.10,2013-05-30 01:21:00,
2013-05-29 21:36:00,70.2,67.0,30.22,East,98,0.0,1.0,88,0.00,,,0.00,weatherlink.com 1.10,2013-05-30 01:36:00,
2013-05-29 21:51:00,70.0,67.0,30.23,ENE,69,0.0,1.0,89,0.00,,,0.00,weatherlink.com 1.10,2013-05-30 01:51:00,
2013-05-29 22:06:00,69.9,67.0,30.23,East,98,0.0,1.0,89,0.00,,,0.00,weatherlink.com 1.10,2013-05-30 02:06:00,
2013-05-29 22:21:00,69.9,67.0,30.23,WSW,256,0.0,0.0,89,0.00,,,0.00,weatherlink.com 1.10,2013-05-30 02:21:00,
2013-05-29 22:36:00,70.5,68.0,30.23,SW,221,0.0,1.0,90,0.00,,,0.00,weatherlink.com 1.10,2013-05-30 02:36:00,
2013-05-29 22:51:00,70.6,67.0,30.24,NE,37,0.0,2.0,89,0.00,,,0.00,weatherlink.com 1.10,2013-05-30 02:51:00,
2013-05-29 23:06:00,70.3,67.0,30.24,ENE,57,0.0,1.0,90,0.00,,,0.00,weatherlink.com 1.10,2013-05-30 03:06:00,
2013-05-29 23:21:00,70.1,67.0,30.24,NW,313,0.0,1.0,89,0.00,,,0.00,weatherlink.com 1.10,2013-05-30 03:21:00,
2013-05-29 23:36:00,70.4,67.0,30.24,ENE,60,0.0,2.0,88,0.00,,,0.00,weatherlink.com 1.10,2013-05-30 03:36:00,
2013-05-29 23:51:00,70.7,67.0,30.24,WSW,245,0.0,1.0,88,0.00,,,0.00,weatherlink.com 1.10,2013-05-30 03:51:00,